GPS BIIF-8

Last updated on Sun Dec 21 2025 00:02:41 GMT+0000 (Coordinated Universal Time)

1 40294U 14068A 25354.43656477 -.00000056 00000+0 00000+0 0 9999 2 40294 56.8634 37.8483 0060813 69.0316 291.6877 2.00565411 81620
UTC large
Height (km)
Speed (km/s)
/
Latitude / Longitude
Inclination (degrees)
Orbital Period (minutes)
Azimuth
Elevation
Range (km)
Doppler Factor

Next 0 passes for location: London (51.5072 / 0.1276)

Sorry there are no passes over London.